Regional Weather Roundup
Issued by NWS Green Bay, WI

Home | Current Version | Previous Version | Text Only | Print | Product List | Glossary On
Versions: 1 2 3 4 5 6 7 8 9 10 11 12 13 14 15 16 17 18 19 20 21 22 23 24 25 26 27 28 29 30 31 32 33 34 35 36 37 38 39 40 41 42 43 44 45 46 47 48 49 50
000
ASUS43 KGRB 202210
RWRGRB

NORTH-CENTRAL AND NORTHEAST WISCONSIN REGIONAL WEATHER ROUNDUP
NATIONAL WEATHER SERVICE GREEN BAY WI
500 PM CDT MON OCT 20 2014

WIZ005-009-010>012-018-019-202300-
NORTH CENTRAL WISCONSIN

CITY           SKY/WX    TMP DP  RH WIND       PRES   REMARKS
IRONWOOD       CLOUDY    46  45  93 NW9       29.98R
MANITOWISH WTR DRIZZLE   45  44  97 N3        29.98R
ARBOR VITAE    MOCLDY    47  41  80 N12       29.97R
EAGLE RIVER    RAIN      44  42  91 N8        29.96R
LAND O LAKES   LGT RAIN  44  41  88 N9G16     29.97R
RHINELANDER    LGT RAIN  44  42  93 NW6       29.97R FOG
PHILLIPS       CLOUDY    48  39  71 NW5       29.97S
ANTIGO         CLOUDY    47  40  76 NW17      29.95R
TOMAHAWK       CLOUDY    47  40  76 N3        29.98R
MERRILL        CLOUDY    49  40  72 N9        29.97R
$$

WIZ013-073-202300-
NORTHEAST WISCONSIN

CITY           SKY/WX    TMP DP  RH WIND       PRES   REMARKS
IRON MOUNTAIN  CLOUDY    47  42  83 NW12      29.93R
MARINETTE      CLOUDY    52  41  66 N9        29.91R
OCONTO         CLOUDY    50  45  81 NW3       29.92R
$$

WIZ017-030-035>037-045-202300-
CENTRAL WISCONSIN

CITY           SKY/WX    TMP DP  RH WIND       PRES   REMARKS
MEDFORD        CLOUDY    48  40  72 N5        29.97R
WAUSAU         CLOUDY    50  40  68 NW8       29.95R
MOSINEE        CLOUDY    48  43  81 N12G20    29.97R
MARSHFIELD     CLOUDY    53  39  59 N10       29.97R
WISC RAPIDS    CLOUDY    53  40  61 N14       29.98R
STEVENS POINT  CLOUDY    49  39  67 NW7       29.97R
WAUPACA        CLOUDY    54  44  70 NW6       29.95R
SHAWANO        CLOUDY    53  44  72 W3        29.94R
CLINTONVILLE   CLOUDY    52  41  66 NW7       29.94R
$$

WIZ038-039-048-051-202300-
FOX VALLEY

CITY           SKY/WX    TMP DP  RH WIND       PRES   REMARKS
NWS GREEN BAY  CLOUDY    52  44  74 NW12      29.94R
APPLETON       CLOUDY    52  43  71 NW12      29.94R
OSHKOSH        CLOUDY    52  44  74 NW8       29.93R
FOND DU LAC    CLOUDY    53  42  66 N12       29.93R
$$

WIZ022-050-052-202300-
EAST CENTRAL WISCONSIN

CITY           SKY/WX    TMP DP  RH WIND       PRES   REMARKS
STURGEON BAY   CLOUDY    50  43  76 N9        29.92R
MANITOWOC      CLOUDY    52  43  71 N10       29.92R
SHEBOYGAN      CLOUDY    53  41  63 N8        29.92R
$$

LMZ563-521-522-541>543-202300-
LAKESHORE

STATION/POSITION TIME  TEMP    WIND        PRES    VSBY  WAVE
                       AIR SEA DIR/SP/G                  HT/PER
                 (UTC) (F)     (DEG/KT/KT) (MB)    (MI)  (FT/S)
SHEBOYGAN LKSHOR 2200   53 50  350/  9/ 10 1013.5R
KEWAUNEE LKSHORE 2200   52     340/  9/ 14 1012.2R
TWO RIVERS CG    2100   52                 1012.8      6   2
NORTHPORT PIER   2200   49     350/ 17/ 23 1012.5S
N MID LAKE BUOY  2200   48 51  330/ 21/ 25 1012.0R         4/ 4
STURGEON BAY CG  2100   51 50  300/  5     1012.4      6   2
CHAMBERS ISLAND  2200   50     320/ 15/ 19 1013.2R
MENOMINEE LKSHOR 2200   51     320/ 13/ 17 1013.6R
$$


USA.gov is the U.S. government's official web portal to all federal, state and local government web resources and services.